Location: Carnetin
(48.9010°N, 2.7059°E)
Time: 11:10:48
(UTC+00:00)

Cosmos 1825 - Pass Details

Date: 03 June 2022
Orbit: 496 x 498 km, 82.5° (Epoch: 01 July)

Event Time Altitude Azimuth Distance (km) Brightness Sun altitude
Exits shadow 02:13:55 - 160° (SSE) 2,146 5.0 -11.7°
Reaches altitude 10° 02:15:06 10° 153° (SSE) 1,694 4.5 -11.5°
Maximum altitude 02:18:23 30° 91° (E) 910 3.8 -11.2°
Drops below altitude 10° 02:21:41 10° 29° (NNE) 1,710 6.4 -10.9°
Sets 02:23:58 0° 19° (NNE) 2,599 7.4 -10.7°
